Location: Pl�tzky
(52.0521°N, 11.8020°E)
Time: 14:38:21
(UTC+00:00)

YAOGAN 1 - Pass Details

Date: 22 November 2019
Orbit: 619 x 621 km, 98.0° (Epoch: 10 December)

Event Time Altitude Azimuth Distance (km) Brightness Sun altitude
Rises 17:13:14 0° 156° (SSE) 2,888 5.9 -17.9°
Reaches altitude 10° 17:15:25 10° 153° (SSE) 1,986 5.0 -18.3°
Maximum altitude 17:19:42 66° 72° (ENE) 681 2.4 -18.9°
Drops below altitude 10° 17:24:01 10° 350° (N) 2,000 5.2 -19.6°
Sets 17:26:13 0° 348° (NNW) 2,911 6.1 -19.9°
